Flag for Switzerland Weather past 2 weeks in Arth, Schwyz, Switzerland

Now
37 °F

Chilly.


Feels Like: 37 °F
Forecast: 18 / 38 °F
Wind: 1 mph from South

Location: Altdorf


UV Index: 3 (Moderate)

Visibility: N/A


Pressure: 29.98 "Hg

Humidity: 80%

Dew point: 31 °F

Location of ArthLocation

Historic Weather in Arth

°F

Arth temperature yesterday

Maximum temperature yesterday: 59 °F (at 5:00 PM)
Minimum temperature yesterday: 31 °F (at 7:00 AM)
Average temperature yesterday: 45 °F

Past Weeks' High & Low Weather Summary

 TemperatureHumidityPressure
High67 °F (Apr 11, 5:00 PM)96% (Apr 6, 7:00 AM)30.34 "Hg (Apr 6, 7:00 AM)
Low31 °F (Apr 17, 7:00 AM)25% (Apr 4, 1:00 AM)29.62 "Hg (Apr 3, 4:00 PM)
Average53 °F65%30.06 "Hg
* Reported Apr 3 7:00 AM — Apr 18 7:00 AM, Arth, Weather by CustomWeather, © 2014

Note: Actual official high and low records may vary slightly from our data, if they occured in-between our weather recording intervals... More about our weather records

Advertising

Historic Weather Conditions — Data for Previous 24 hours

 ConditionsComfort  
Time TempWeatherWind HumidityBarometerVisibility
7:00 AM
Apr 18
37 °FChilly.1 mph80%29.98 "HgN/A
6:00 AM38 °FChilly.2 mph77%29.98 "HgN/A
5:00 AM37 °FPassing clouds.1 mph79%30.00 "Hg11 mi
4:00 AM37 °FChilly.2 mph79%30.01 "HgN/A
3:00 AM38 °FChilly.2 mph78%30.02 "HgN/A
2:00 AM43 °FClear.2 mph67%30.02 "Hg11 mi
6:00 PM
Apr 17
56 °FRefreshingly cool.6 mph38%30.01 "HgN/A
5:00 PM59 °FSunny.8 mph37%30.02 "Hg15 mi
4:00 PM59 °FRefreshingly cool.8 mph44%30.03 "HgN/A
3:00 PM58 °FRefreshingly cool.9 mph48%30.07 "HgN/A
2:00 PM56 °FSunny.8 mph46%30.09 "Hg16 mi
1:00 PM53 °FCool.9 mph50%30.13 "HgN/A
12:00 PM50 °FCool.6 mph52%30.16 "HgN/A
11:00 AM48 °FSunny.5 mph54%30.20 "Hg16 mi
10:00 AM46 °FCool.8 mph62%30.21 "HgN/A
9:00 AM41 °FQuite cool.6 mph69%30.22 "HgN/A
8:00 AM37 °FSunny.2 mph72%30.24 "Hg14 mi
Weather by CustomWeather, © 2014

See weather overview